Location: B?lite?ti
(46.2833°N, 22.7333°E)
Time: 16:02:38
(UTC+00:00)

Cosmos 858 Rocket - Pass Details

Date: 24 January 2021
Orbit: 756 x 774 km, 74.1° (Epoch: 01 March)

Event Time Altitude Azimuth Distance (km) Brightness Sun altitude
Rises 17:15:03 0° 194° (SSW) 3,237 8.0 -19.4°
Reaches altitude 10° 17:17:25 10° 192° (SSW) 2,315 7.2 -19.8°
Maximum altitude 17:22:40 73° 108° (ESE) 812 4.4 -20.7°
Enters shadow 17:25:30 28° 30° (NNE) 1,431 5.6 -21.2°
